| time (UTC) | temp F | wind direction | speed knots | gust knots | rain 1hr in | rain 24hr in | rain mn in | humidity % | barometer mb |
| 20260506001749 | 70 | 90 | 8.7 | 13.0 | 0.00 | 0.00 | 0.00 | 80 | 1011.2 |
| 20260506001241 | 70 | 113 | 7.0 | 13.0 | 0.00 | 0.00 | 0.00 | 80 | 1011.1 |
| 20260506000729 | 70 | 90 | 7.8 | 14.8 | 0.00 | 0.00 | 0.00 | 79 | 1011.1 |
| 20260506000219 | 70 | 113 | 9.6 | 14.8 | 0.00 | 0.00 | 0.00 | 79 | 1010.9 |
| 20260505235709 | 70 | 113 | 7.8 | 13.9 | 0.00 | 0.00 | 0.00 | 79 | 1010.9 |
| 20260505235159 | 70 | 113 | 7.8 | 13.0 | 0.00 | 0.00 | 0.00 | 79 | 1010.9 |
| 20260505234649 | 71 | 113 | 8.7 | 12.2 | 0.00 | 0.00 | 0.00 | 79 | 1010.7 |
| 20260505233118 | 71 | 113 | 7.0 | 12.2 | 0.00 | 0.00 | 0.00 | 79 | 1010.9 |
| 20260505232608 | 71 | 135 | 7.8 | 12.2 | 0.00 | 0.00 | 0.00 | 78 | 1010.8 |
| 20260505232058 | 71 | 113 | 7.0 | 11.3 | 0.00 | 0.00 | 0.00 | 78 | 1010.7 |
| 20260505231547 | 71 | 113 | 3.5 | 9.6 | 0.00 | 0.00 | 0.00 | 78 | 1010.7 |
| 20260505231038 | 71 | 113 | 3.5 | 9.6 | 0.00 | 0.00 | 0.00 | 78 | 1010.7 |
| 20260505230527 | 72 | 135 | 3.5 | 9.6 | 0.00 | 0.00 | 0.00 | 78 | 1010.7 |
| 20260505230018 | 72 | 158 | 5.2 | 9.6 | 0.00 | 0.00 | 0.00 | 77 | 1010.6 |
| 20260505225508 | 72 | 135 | 5.2 | 7.8 | 0.00 | 0.00 | 0.00 | 77 | 1010.6 |
| 20260505224957 | 72 | 135 | 2.6 | 7.8 | 0.00 | 0.00 | 0.00 | 77 | 1010.6 |
| 20260505224447 | 72 | 158 | 1.7 | 9.6 | 0.00 | 0.00 | 0.00 | 77 | 1010.5 |
| 20260505223938 | 72 | 135 | 5.2 | 9.6 | 0.00 | 0.00 | 0.00 | 76 | 1010.8 |
| 20260505223427 | 72 | 113 | 3.5 | 9.6 | 0.00 | 0.00 | 0.00 | 76 | 1010.5 |
| 20260505222407 | 72 | 135 | 3.5 | 9.6 | 0.00 | 0.00 | 0.00 | 75 | 1010.7 |
| 20260505221858 | 72 | 158 | 4.3 | 11.3 | 0.00 | 0.00 | 0.00 | 74 | 1010.3 |
| 20260505220836 | 73 | 113 | 7.0 | 11.3 | 0.00 | 0.00 | 0.00 | 73 | 1010.4 |
| 20260505220327 | 73 | 135 | 6.1 | 11.3 | 0.00 | 0.00 | 0.00 | 72 | 1010.5 |
| 20260505214755 | 73 | 158 | 0.0 | 1.7 | 0.00 | 0.00 | 0.00 | 71 | 1010.4 |
| 20260505214247 | 73 | 158 | 0.0 | 1.7 | 0.00 | 0.00 | 0.00 | 71 | 1010.2 |
| 20260505213225 | 74 | 158 | 0.0 | 0.0 | 0.00 | 0.00 | 0.00 | 69 | 1010.3 |
| 20260505212718 | 74 | 158 | 0.0 | 0.0 | 0.00 | 0.00 | 0.00 | 69 | 1010.3 |
| 20260505212205 | 74 | 158 | 0.0 | 0.0 | 0.00 | 0.00 | 0.00 | 69 | 1010.3 |
| 20260505210635 | 74 | 135 | 0.0 | 1.7 | 0.00 | 0.00 | 0.00 | 69 | 1010.3 |
| 20260505205615 | 75 | 135 | 0.0 | 1.7 | 0.00 | 0.00 | 0.00 | 68 | 1010.1 |
| 20260505205105 | 75 | 90 | 0.0 | 5.2 | 0.00 | 0.00 | 0.00 | 68 | 1009.8 |
| 20260505204555 | 75 | 113 | 0.0 | 5.2 | 0.00 | 0.00 | 0.00 | 68 | 1009.9 |
| 20260505204044 | 75 | 113 | 0.0 | 1.7 | 0.00 | 0.00 | 0.00 | 68 | 1009.9 |
| 20260505203534 | 75 | 113 | 0.0 | 1.7 | 0.00 | 0.00 | 0.00 | 68 | 1009.8 |
| 20260505202514 | 76 | 113 | 0.0 | 7.0 | 0.00 | 0.00 | 0.00 | 67 | 1009.8 |
| 20260505202005 | 76 | 113 | 4.3 | 7.0 | 0.00 | 0.00 | 0.00 | 67 | 1010.0 |
| 20260505200944 | 76 | 113 | 4.3 | 6.1 | 0.00 | 0.00 | 0.00 | 67 | 1009.8 |
| 20260505200434 | 76 | 113 | 0.0 | 1.7 | 0.00 | 0.00 | 0.00 | 67 | 1009.8 |
| 20260505195923 | 76 | 113 | 0.0 | 1.7 | 0.00 | 0.00 | 0.00 | 66 | 1009.8 |
| 20260505195413 | 76 | 113 | 0.0 | 1.7 | 0.00 | 0.00 | 0.00 | 66 | 1009.6 |
| 20260505194904 | 76 | 113 | 0.0 | 1.7 | 0.00 | 0.00 | 0.00 | 67 | 1009.9 |
| 20260505194357 | 76 | 90 | 0.0 | 3.5 | 0.00 | 0.00 | 0.00 | 67 | 1010.0 |
| 20260505193843 | 76 | 68 | 0.0 | 7.0 | 0.00 | 0.00 | 0.00 | 67 | 1010.0 |
| 20260505193334 | 76 | 113 | 0.9 | 7.0 | 0.00 | 0.00 | 0.00 | 67 | 1010.0 |
| 20260505192822 | 77 | 113 | 0.0 | 6.1 | 0.00 | 0.00 | 0.00 | 66 | 1010.0 |
| 20260505192313 | 76 | 113 | 0.0 | 3.5 | 0.00 | 0.00 | 0.00 | 66 | 1010.0 |
| 20260505191803 | 76 | 90 | 0.0 | 3.5 | 0.00 | 0.00 | 0.00 | 67 | 1009.9 |
| 20260505190742 | 76 | 113 | 3.5 | 6.1 | 0.00 | 0.00 | 0.00 | 66 | 1010.2 |
| 20260505190246 | 76 | 113 | 0.0 | 1.7 | 0.00 | 0.00 | 0.00 | 67 | 1010.0 |
| 20260505185722 | 76 | 68 | 0.0 | 5.2 | 0.00 | 0.00 | 0.00 | 66 | 1010.2 |
| 20260505185216 | 76 | 113 | 0.0 | 5.2 | 0.00 | 0.00 | 0.00 | 66 | 1010.1 |
| 20260505184702 | 76 | 68 | 0.0 | 0.0 | 0.00 | 0.00 | 0.00 | 66 | 1010.2 |
| 20260505184153 | 76 | 68 | 0.0 | 1.7 | 0.00 | 0.00 | 0.00 | 66 | 1010.3 |
| 20260505183642 | 76 | 90 | 0.0 | 6.1 | 0.00 | 0.00 | 0.00 | 66 | 1010.2 |
| 20260505183132 | 76 | 90 | 0.9 | 6.1 | 0.00 | 0.00 | 0.00 | 66 | 1010.1 |
| 20260505182622 | 76 | 90 | 0.9 | 7.0 | 0.00 | 0.00 | 0.00 | 67 | 1010.3 |
| 20260505181605 | 76 | 45 | 3.5 | 7.0 | 0.00 | 0.00 | 0.00 | 67 | 1010.1 |
| 20260505180542 | 76 | 90 | 0.9 | 3.5 | 0.00 | 0.00 | 0.00 | 68 | 1010.3 |
| 20260505180031 | 76 | 68 | 1.7 | 3.5 | 0.00 | 0.00 | 0.00 | 69 | 1010.3 |
| 20260505175521 | 76 | 23 | 0.0 | 5.2 | 0.00 | 0.00 | 0.00 | 69 | 1010.6 |
| 20260505175010 | 76 | 45 | 3.5 | 5.2 | 0.00 | 0.00 | 0.00 | 69 | 1010.7 |
| 20260505173441 | 76 | 45 | 0.0 | 0.0 | 0.00 | 0.00 | 0.00 | 68 | 1010.8 |
| 20260505172930 | 76 | 23 | 0.0 | 0.0 | 0.00 | 0.00 | 0.00 | 67 | 1010.8 |
| 20260505172420 | 77 | 0 | 0.0 | 0.0 | 0.00 | 0.00 | 0.00 | 67 | 1010.9 |
| 20260505171910 | 76 | 0 | 0.0 | 0.0 | 0.00 | 0.00 | 0.00 | 67 | 1010.7 |
| 20260505171400 | 76 | 338 | 0.0 | 0.0 | 0.00 | 0.00 | 0.00 | 66 | 1011.1 |
| 20260505170340 | 76 | 23 | 0.0 | 0.0 | 0.00 | 0.00 | 0.00 | 66 | 1010.7 |
| 20260505165830 | 76 | 0 | 0.0 | 3.5 | 0.00 | 0.00 | 0.00 | 67 | 1011.0 |
| 20260505165322 | 76 | 0 | 0.0 | 3.5 | 0.00 | 0.00 | 0.00 | 67 | 1011.1 |
| 20260505164810 | 76 | 23 | 0.0 | 0.0 | 0.00 | 0.00 | 0.00 | 66 | 1011.0 |
| 20260505164300 | 76 | 23 | 0.0 | 3.5 | 0.00 | 0.00 | 0.00 | 66 | 1011.1 |
| 20260505163749 | 76 | 23 | 0.0 | 3.5 | 0.00 | 0.00 | 0.00 | 66 | 1011.3 |
| 20260505163240 | 76 | 68 | 0.0 | 1.7 | 0.00 | 0.00 | 0.00 | 66 | 1011.2 |
| 20260505162730 | 76 | 0 | 0.0 | 1.7 | 0.00 | 0.00 | 0.00 | 66 | 1011.2 |
| 20260505162218 | 76 | 0 | 0.0 | 7.8 | 0.00 | 0.00 | 0.00 | 65 | 1011.1 |
| 20260505161709 | 76 | 23 | 0.0 | 7.8 | 0.00 | 0.00 | 0.00 | 66 | 1011.0 |
| 20260505161158 | 76 | 0 | 3.5 | 7.8 | 0.00 | 0.00 | 0.00 | 65 | 1011.3 |
| 20260505160648 | 76 | 45 | 0.0 | 6.1 | 0.00 | 0.00 | 0.00 | 66 | 1011.6 |
| 20260505160139 | 76 | 338 | 0.9 | 6.1 | 0.00 | 0.00 | 0.00 | 66 | 1011.6 |
| 20260505153037 | 76 | 0 | 0.0 | 7.8 | 0.00 | 0.00 | 0.00 | 68 | 1011.4 |
| 20260505152528 | 76 | 338 | 0.9 | 7.8 | 0.00 | 0.00 | 0.00 | 69 | 1011.6 |
| 20260505152018 | 76 | 338 | 1.7 | 7.8 | 0.00 | 0.00 | 0.00 | 69 | 1011.8 |
| 20260505151507 | 75 | 23 | 0.0 | 9.6 | 0.00 | 0.00 | 0.00 | 70 | 1012.0 |
| 20260505150957 | 75 | 0 | 3.5 | 9.6 | 0.00 | 0.00 | 0.00 | 70 | 1011.7 |
| 20260505130106 | 62 | 90 | 0.0 | 0.0 | 0.00 | 0.00 | 0.00 | 80 | 1012.4 |
| 20260505125024 | 62 | 113 | 0.0 | 0.0 | 0.00 | 0.00 | 0.00 | 80 | 1012.3 |
| 20260505123454 | 60 | 68 | 0.0 | 0.0 | 0.00 | 0.00 | 0.00 | 80 | 1012.4 |
| 20260505121925 | 60 | 90 | 0.0 | 0.0 | 0.00 | 0.00 | 0.00 | 80 | 1012.3 |
| 20260505121413 | 60 | 23 | 0.0 | 0.0 | 0.00 | 0.00 | 0.00 | 81 | 1012.6 |
| 20260505115843 | 59 | 90 | 0.0 | 0.0 | 0.00 | 0.00 | 0.00 | 81 | 1012.0 |
| 20260505115406 | 59 | 90 | 0.0 | 0.0 | 0.00 | 0.00 | 0.00 | 81 | 1012.1 |
| 20260505114823 | 59 | 68 | 0.0 | 0.0 | 0.00 | 0.00 | 0.00 | 80 | 1011.9 |
| 20260505114316 | 58 | 90 | 0.0 | 0.0 | 0.00 | 0.00 | 0.00 | 80 | 1011.8 |
| 20260505113803 | 58 | 68 | 0.0 | 0.0 | 0.00 | 0.00 | 0.00 | 80 | 1011.8 |
| 20260505113254 | 58 | 90 | 0.0 | 0.0 | 0.00 | 0.00 | 0.00 | 80 | 1011.6 |
| 20260505112755 | 58 | 45 | 0.0 | 0.0 | 0.00 | 0.00 | 0.00 | 80 | 1011.8 |
| 20260505112233 | 58 | 90 | 0.0 | 0.0 | 0.00 | 0.00 | 0.00 | 80 | 1011.6 |
| 20260505111723 | 59 | 23 | 0.0 | 0.0 | 0.00 | 0.00 | 0.00 | 79 | 1011.9 |
| 20260505111212 | 59 | 90 | 0.0 | 1.7 | 0.00 | 0.00 | 0.00 | 79 | 1011.4 |
| 20260505110714 | 59 | 113 | 0.0 | 1.7 | 0.00 | 0.00 | 0.00 | 79 | 1011.1 |
| 20260505110152 | 58 | 90 | 0.0 | 1.7 | 0.00 | 0.00 | 0.00 | 78 | 1011.2 |
| 20260505102033 | 58 | 135 | 0.0 | 0.0 | 0.00 | 0.00 | 0.00 | 77 | 1011.0 |
| 20260505101522 | 58 | 135 | 0.0 | 0.0 | 0.00 | 0.00 | 0.00 | 77 | 1011.0 |
| 20260505101011 | 58 | 135 | 0.0 | 0.0 | 0.00 | 0.00 | 0.00 | 77 | 1011.2 |
| 20260505100500 | 58 | 135 | 0.0 | 0.0 | 0.00 | 0.00 | 0.00 | 78 | 1011.0 |
| 20260505095952 | 58 | 158 | 0.0 | 0.0 | 0.00 | 0.00 | 0.00 | 78 | 1010.8 |
| 20260505095440 | 58 | 158 | 0.0 | 0.0 | 0.00 | 0.00 | 0.00 | 78 | 1010.7 |
| 20260505094930 | 58 | 158 | 0.0 | 0.0 | 0.00 | 0.00 | 0.00 | 78 | 1010.9 |
| 20260505094420 | 58 | 158 | 0.0 | 0.0 | 0.00 | 0.00 | 0.00 | 77 | 1010.7 |
| 20260505093909 | 58 | 158 | 0.0 | 0.0 | 0.00 | 0.00 | 0.00 | 77 | 1010.8 |
| 20260505093401 | 58 | 158 | 0.0 | 0.0 | 0.00 | 0.00 | 0.00 | 77 | 1010.5 |
| 20260505092849 | 58 | 135 | 0.0 | 0.0 | 0.00 | 0.00 | 0.00 | 76 | 1010.6 |
| 20260505092340 | 59 | 135 | 0.0 | 0.0 | 0.00 | 0.00 | 0.00 | 76 | 1010.7 |
| 20260505091320 | 58 | 135 | 0.0 | 0.0 | 0.00 | 0.00 | 0.00 | 77 | 1010.1 |
| 20260505090300 | 58 | 158 | 0.0 | 0.0 | 0.00 | 0.00 | 0.00 | 76 | 1010.5 |
| 20260505085749 | 59 | 135 | 0.0 | 0.0 | 0.00 | 0.00 | 0.00 | 75 | 1010.3 |
| 20260505085239 | 58 | 158 | 0.0 | 0.0 | 0.00 | 0.00 | 0.00 | 76 | 1010.6 |
| 20260505084729 | 59 | 158 | 0.0 | 0.0 | 0.00 | 0.00 | 0.00 | 75 | 1010.5 |
| 20260505084218 | 59 | 135 | 0.0 | 0.0 | 0.00 | 0.00 | 0.00 | 75 | 1010.3 |
| 20260505083708 | 58 | 135 | 0.0 | 0.0 | 0.00 | 0.00 | 0.00 | 75 | 1010.4 |
| 20260505082649 | 59 | 135 | 0.0 | 0.0 | 0.00 | 0.00 | 0.00 | 73 | 1010.5 |
| 20260505082139 | 59 | 135 | 0.0 | 0.0 | 0.00 | 0.00 | 0.00 | 73 | 1010.3 |
| 20260505081629 | 59 | 135 | 0.0 | 0.0 | 0.00 | 0.00 | 0.00 | 73 | 1010.2 |
| 20260505081118 | 59 | 135 | 0.0 | 0.0 | 0.00 | 0.00 | 0.00 | 73 | 1010.4 |
| 20260505080608 | 58 | 180 | 0.0 | 0.0 | 0.00 | 0.00 | 0.00 | 74 | 1010.4 |
| 20260505080104 | 58 | 225 | 0.0 | 0.0 | 0.00 | 0.00 | 0.00 | 74 | 1010.5 |
| 20260505075547 | 58 | 90 | 0.0 | 0.0 | 0.00 | 0.00 | 0.00 | 75 | 1010.1 |
| 20260505075037 | 58 | 113 | 0.0 | 0.0 | 0.00 | 0.00 | 0.00 | 75 | 1010.2 |
| 20260505074529 | 57 | 90 | 0.0 | 0.0 | 0.00 | 0.00 | 0.00 | 76 | 1010.1 |
| 20260505073507 | 56 | 68 | 0.0 | 0.0 | 0.00 | 0.00 | 0.00 | 77 | 1009.9 |
| 20260505072958 | 56 | 90 | 0.0 | 0.0 | 0.00 | 0.00 | 0.00 | 78 | 1010.1 |
| 20260505072446 | 56 | 68 | 0.0 | 0.0 | 0.00 | 0.00 | 0.00 | 78 | 1010.0 |
| 20260505071936 | 56 | 68 | 0.0 | 0.0 | 0.00 | 0.00 | 0.00 | 77 | 1010.2 |
| 20260505071427 | 56 | 68 | 0.0 | 0.0 | 0.00 | 0.00 | 0.00 | 78 | 1009.8 |
| 20260505070917 | 55 | 68 | 0.0 | 0.0 | 0.00 | 0.00 | 0.00 | 79 | 1009.9 |
| 20260505070406 | 55 | 68 | 0.0 | 0.0 | 0.00 | 0.00 | 0.00 | 78 | 1009.9 |
| 20260505070158 | 55 | 68 | 0.0 | 0.0 | 0.00 | 0.00 | 0.00 | 78 | 1010.1 |
| 20260505065559 | 55 | 68 | 0.0 | 0.0 | 0.00 | 0.00 | 0.00 | 78 | 1010.1 |
| 20260505065048 | 56 | 45 | 0.0 | 0.0 | 0.00 | 0.00 | 0.00 | 77 | 1010.3 |
| 20260505064539 | 56 | 45 | 0.0 | 1.7 | 0.00 | 0.00 | 0.00 | 77 | 1010.3 |
| 20260505063518 | 56 | 68 | 0.0 | 0.0 | 0.00 | 0.00 | 0.00 | 76 | 1010.2 |
| 20260505063008 | 56 | 68 | 0.0 | 0.0 | 0.00 | 0.00 | 0.00 | 76 | 1010.1 |
| 20260505061437 | 56 | 90 | 0.0 | 0.0 | 0.00 | 0.00 | 0.00 | 76 | 1010.0 |
| 20260505060928 | 56 | 90 | 0.0 | 0.0 | 0.00 | 0.00 | 0.00 | 76 | 1010.3 |
| 20260505060417 | 56 | 68 | 0.0 | 0.0 | 0.00 | 0.00 | 0.00 | 76 | 1010.1 |
| 20260505055907 | 56 | 68 | 0.0 | 0.0 | 0.00 | 0.00 | 0.00 | 77 | 1010.5 |
| 20260505054848 | 55 | 90 | 0.0 | 1.7 | 0.00 | 0.00 | 0.00 | 78 | 1010.4 |
| 20260505053826 | 54 | 68 | 0.0 | 1.7 | 0.00 | 0.00 | 0.00 | 78 | 1010.6 |
| 20260505053318 | 54 | 68 | 0.0 | 1.7 | 0.00 | 0.00 | 0.00 | 78 | 1010.5 |
| 20260505052807 | 54 | 68 | 0.9 | 1.7 | 0.00 | 0.00 | 0.00 | 78 | 1010.6 |
| 20260505052257 | 54 | 90 | 0.0 | 1.7 | 0.00 | 0.00 | 0.00 | 77 | 1010.7 |
| 20260505051237 | 55 | 68 | 0.0 | 6.1 | 0.00 | 0.00 | 0.00 | 75 | 1010.7 |
| 20260505050726 | 56 | 68 | 2.6 | 6.1 | 0.00 | 0.00 | 0.00 | 74 | 1010.5 |
| 20260505050217 | 56 | 68 | 0.0 | 3.5 | 0.00 | 0.00 | 0.00 | 74 | 1010.8 |
| 20260505041545 | 56 | 90 | 0.0 | 0.0 | 0.00 | 0.00 | 0.00 | 73 | 1010.6 |
| 20260505040524 | 56 | 68 | 0.0 | 0.0 | 0.00 | 0.00 | 0.00 | 73 | 1010.6 |
| 20260505040025 | 56 | 68 | 0.0 | 0.0 | 0.00 | 0.00 | 0.00 | 72 | 1010.6 |
| 20260505035506 | 56 | 68 | 0.0 | 0.0 | 0.00 | 0.00 | 0.00 | 72 | 1010.8 |
| 20260505034446 | 57 | 68 | 0.0 | 0.0 | 0.00 | 0.00 | 0.00 | 71 | 1010.7 |
| 20260505033934 | 57 | 68 | 0.0 | 0.0 | 0.00 | 0.00 | 0.00 | 71 | 1011.0 |
| 20260505033424 | 57 | 68 | 0.0 | 0.0 | 0.00 | 0.00 | 0.00 | 71 | 1010.8 |
| 20260505032915 | 57 | 90 | 0.0 | 0.0 | 0.00 | 0.00 | 0.00 | 71 | 1010.6 |
| 20260505032403 | 57 | 68 | 0.0 | 0.0 | 0.00 | 0.00 | 0.00 | 71 | 1010.7 |
| 20260505031854 | 57 | 90 | 0.0 | 0.0 | 0.00 | 0.00 | 0.00 | 71 | 1010.6 |
| 20260505030323 | 56 | 90 | 0.0 | 1.7 | 0.00 | 0.00 | 0.00 | 71 | 1010.3 |
| 20260505025813 | 56 | 90 | 0.0 | 0.0 | 0.00 | 0.00 | 0.00 | 70 | 1010.3 |
| 20260505025304 | 57 | 90 | 0.0 | 0.0 | 0.00 | 0.00 | 0.00 | 70 | 1010.6 |
| 20260505024753 | 57 | 90 | 0.0 | 0.0 | 0.00 | 0.00 | 0.00 | 70 | 1010.3 |
| 20260505024243 | 57 | 90 | 0.0 | 0.0 | 0.00 | 0.00 | 0.00 | 70 | 1010.3 |
| 20260505023733 | 56 | 90 | 0.0 | 0.0 | 0.00 | 0.00 | 0.00 | 70 | 1010.3 |
| 20260505022713 | 57 | 113 | 0.0 | 0.0 | 0.00 | 0.00 | 0.00 | 69 | 1010.5 |
| 20260505022205 | 57 | 90 | 0.0 | 0.0 | 0.00 | 0.00 | 0.00 | 68 | 1010.5 |
| 20260505021652 | 57 | 90 | 0.0 | 0.0 | 0.00 | 0.00 | 0.00 | 69 | 1010.3 |
| 20260505021143 | 57 | 90 | 0.0 | 0.0 | 0.00 | 0.00 | 0.00 | 68 | 1010.5 |
| 20260505020633 | 56 | 113 | 0.0 | 0.0 | 0.00 | 0.00 | 0.00 | 68 | 1010.5 |
| 20260505020125 | 57 | 90 | 0.0 | 0.0 | 0.00 | 0.00 | 0.00 | 68 | 1010.6 |
| 20260505015614 | 57 | 68 | 0.0 | 0.0 | 0.00 | 0.00 | 0.00 | 68 | 1010.7 |
| 20260505015101 | 57 | 68 | 0.0 | 0.0 | 0.00 | 0.00 | 0.00 | 67 | 1010.6 |
| 20260505014553 | 57 | 45 | 0.0 | 0.0 | 0.00 | 0.00 | 0.00 | 66 | 1010.4 |
| 20260505014041 | 57 | 45 | 0.0 | 0.0 | 0.00 | 0.00 | 0.00 | 66 | 1010.5 |
| 20260505013022 | 58 | 45 | 0.0 | 0.0 | 0.00 | 0.00 | 0.00 | 66 | 1010.4 |
| 20260505012511 | 58 | 68 | 0.0 | 0.0 | 0.00 | 0.00 | 0.00 | 65 | 1010.2 |
| 20260505012004 | 58 | 68 | 0.0 | 0.0 | 0.00 | 0.00 | 0.00 | 66 | 1010.1 |
| 20260505011454 | 58 | 68 | 0.0 | 0.0 | 0.00 | 0.00 | 0.00 | 66 | 1010.0 |
| 20260505010942 | 58 | 68 | 0.0 | 0.0 | 0.00 | 0.00 | 0.00 | 66 | 1010.0 |
| 20260505010431 | 58 | 68 | 0.0 | 0.0 | 0.00 | 0.00 | 0.00 | 65 | 1009.8 |
| 20260505005920 | 58 | 68 | 0.0 | 0.0 | 0.00 | 0.00 | 0.00 | 65 | 1010.0 |
| 20260505005411 | 59 | 68 | 0.0 | 0.0 | 0.00 | 0.00 | 0.00 | 64 | 1009.9 |
| 20260505004903 | 59 | 68 | 0.0 | 0.0 | 0.00 | 0.00 | 0.00 | 63 | 1009.8 |
| 20260505004351 | 60 | 68 | 0.0 | 0.0 | 0.00 | 0.00 | 0.00 | 63 | 1009.7 |
| 20260505003330 | 60 | 68 | 0.0 | 0.0 | 0.00 | 0.00 | 0.00 | 62 | 1009.5 |
| 20260505002821 | 60 | 90 | 0.0 | 0.0 | 0.00 | 0.00 | 0.00 | 62 | 1009.5 |